Volver al catálogo

OPS 5117

NAVSTAR 5

ActivoNavegaciónHEO
NORAD 11690·PAYLOAD·🇺🇸 United States

Lanzado Feb 9, 1980 desde Vandenberg Space Force Base

Loading…

Próximos Pases (próximas 24 horas)

TLE

ActualizadoSource: Space-Track

Época: Sep 5, 2026, 20:47 UTC

1 11690U 80011A   26248.86614161  .00000001  00000-0  00000-0 0  9993
2 11690  64.8443  46.1560 0491632 204.9788 337.0068  2.00574775355347

Sigue OPS 5117 en tiempo real con AllMySat

Download on the App Store